Zurück zum Katalog

SPACENET 4

ASC 2

AktivKommunikationGEO
NORAD 21227·PAYLOAD·🇺🇸 United States

Gestartet Apr 13, 1991 von Cape Canaveral Space Force Station

Loading…

TLE

AktuellSource: Space-Track

Epoche: Sep 14, 2026, 01:45 UTC

1 21227U 91028A   26257.07305674 -.00000239  00000-0  00000-0 0  9993
2 21227  13.8316  13.1770 0006125 306.0122  43.8780  0.99572341127252

Verfolge SPACENET 4 in Echtzeit mit AllMySat

Download on the App Store